MST,Max TemperatureF,Mean TemperatureF,Min TemperatureF,Max Dew PointF,MeanDew PointF,Min DewpointF,Max Humidity, Mean Humidity, Min Humidity, Max Sea Level PressureIn, Mean Sea Level PressureIn, Min Sea Level PressureIn, Max VisibilityMiles, Mean VisibilityMiles, Min VisibilityMiles, Max Wind SpeedMPH, Mean Wind SpeedMPH, Max Gust SpeedMPH,PrecipitationIn, CloudCover, Events, WindDirDegrees
2012-12-1,50,42,33,33,29,24,76,61,46,29.90,29.80,29.71,10,10,10,22,8,31,0.00,0,,260
2012-12-2,54,42,30,27,23,18,72,48,24,29.89,29.64,29.39,10,10,10,30,12,52,0.00,0,,235
2012-12-3,49,37,25,32,17,10,70,50,30,30.17,29.89,29.48,10,10,10,33,10,49,T,1,Rain,284
2012-12-4,41,33,24,22,14,11,60,44,28,30.32,30.18,30.07,10,10,10,15,6,24,0.00,0,,243
2012-12-5,50,40,30,35,30,23,79,63,46,30.04,29.83,29.71,10,10,10,24,9,32,0.02,3,Rain,263
2012-12-6,39,32,25,30,23,16,92,71,49,30.03,29.94,29.80,10,7,1,14,3,21,0.09,8,Snow,153
2012-12-7,31,23,15,19,16,12,91,72,53,29.99,29.87,29.71,10,9,2,16,5,23,0.01,3,Snow,300
2012-12-8,32,21,9,17,12,-1,84,64,43,29.95,29.75,29.63,10,10,8,18,7,25,T,4,,272
2012-12-9,18,12,6,2,-1,-5,76,58,39,30.33,30.14,29.80,10,9,1,16,8,24,0.01,3,Snow,309
2012-12-10,27,16,5,16,11,-4,88,65,42,29.99,29.84,29.69,10,6,0,22,9,31,0.03,6,Fog-Snow,278
2012-12-11,30,22,13,19,13,9,88,69,50,29.96,29.82,29.65,10,9,2,17,8,30,0.01,3,Snow,255
2012-12-12,41,33,24,20,18,16,74,56,38,29.83,29.72,29.64,10,10,10,21,10,32,0.00,1,,258
2012-12-13,43,33,23,18,16,14,68,51,33,29.99,29.89,29.80,10,10,10,18,7,28,0.00,0,,241
2012-12-14,47,39,30,19,15,12,58,42,25,29.78,29.64,29.52,10,10,10,13,5,18,0.00,0,,278
2012-12-15,36,27,18,17,14,9,77,60,42,29.79,29.69,29.54,10,10,10,10,3,15,0.00,5,,4
2012-12-16,34,27,19,17,12,6,91,67,43,29.78,29.68,29.58,10,10,10,18,7,30,0.00,4,,249
2012-12-17,39,24,9,25,16,7,83,65,47,29.73,29.54,29.37,10,9,2,15,6,21,T,4,Snow,266
2012-12-18,29,22,15,23,11,-2,78,56,34,29.84,29.67,29.43,10,10,9,20,7,29,T,2,Snow,275
2012-12-19,23,14,5,4,0,-4,67,53,39,30.19,30.01,29.84,10,10,10,15,5,21,0.00,4,,318
2012-12-20,36,20,3,3,0,-8,69,46,23,30.23,30.18,30.13,10,10,10,20,8,29,0.00,0,,265
2012-12-21,45,35,24,3,-1,-3,36,25,14,30.16,30.06,29.93,10,10,10,21,10,32,0.00,0,,266
2012-12-22,47,33,18,7,2,-2,46,31,15,30.06,29.96,29.83,10,10,10,14,4,23,0.00,0,,261
2012-12-23,37,27,17,18,9,2,63,44,25,29.96,29.87,29.76,10,10,10,22,8,32,0.00,1,,273
2012-12-24,25,16,7,21,12,3,92,80,67,30.21,29.92,29.79,10,3,1,10,3,14,0.16,8,Snow,65
2012-12-25,13,6,-2,7,1,-3,95,83,70,30.39,30.21,30.01,10,7,1,10,4,15,0.01,5,Snow,229
2012-12-26,23,12,0,12,7,-4,87,75,62,30.14,29.88,29.59,10,7,1,7,3,10,0.05,6,Snow,46
2012-12-27,13,6,-1,10,4,-4,95,84,73,30.06,29.77,29.57,10,5,1,8,3,15,0.03,7,Snow,94
2012-12-28,26,11,-4,13,6,-8,91,69,46,30.14,30.07,30.02,10,10,10,17,5,24,T,3,,289
2012-12-29,32,22,12,10,8,3,80,58,36,30.18,30.09,29.96,10,10,10,15,5,21,0.00,0,,259
2012-12-30,33,19,5,10,4,-1,83,55,26,30.15,30.01,29.89,10,10,9,21,6,33,0.00,0,,291
2012-12-31,28,15,1,16,6,-2,92,69,46,30.19,30.07,29.95,10,8,1,13,3,18,0.00,3,,283